Time,TemperatureF,DewpointF,PressureIn,WindDirection,WindDirectionDegrees,WindSpeedMPH,WindSpeedGustMPH,Humidity,HourlyPrecipIn,Conditions,Clouds,dailyrainin,SoftwareType,DateUTC
2013-09-24 00:00:00,51.7,46.4,29.88,NE,46,0.0,2.0,82,0.00,,,0.00,VWS V14.01,2013-09-24 04:00:00,
2013-09-24 00:10:00,52.0,47.0,29.88,NE,46,0.0,1.0,83,0.00,,,0.00,VWS V14.01,2013-09-24 04:10:00,
2013-09-24 00:20:00,52.1,46.8,29.88,NE,55,0.0,2.0,82,0.00,,,0.00,VWS V14.01,2013-09-24 04:20:00,
2013-09-24 00:30:00,52.1,46.8,29.88,SSW,199,0.0,2.0,82,0.00,,,0.00,VWS V14.01,2013-09-24 04:30:00,
2013-09-24 00:40:00,52.1,46.8,29.88,SSW,199,0.0,1.0,82,0.00,,,0.00,VWS V14.01,2013-09-24 04:40:00,
2013-09-24 00:50:00,52.0,46.7,29.88,SW,215,0.0,3.0,82,0.00,,,0.00,VWS V14.01,2013-09-24 04:50:00,
2013-09-24 01:00:00,51.8,46.8,29.88,SW,217,0.0,2.0,83,0.00,,,0.00,VWS V14.01,2013-09-24 05:00:00,
2013-09-24 01:10:00,51.8,46.8,29.88,SSW,200,0.0,2.0,83,0.00,,,0.00,VWS V14.01,2013-09-24 05:10:00,
2013-09-24 01:20:00,51.8,46.5,29.88,SSW,192,0.0,3.0,82,0.00,,,0.00,VWS V14.01,2013-09-24 05:20:00,
2013-09-24 01:30:00,51.8,46.5,29.89,SSW,192,0.0,1.0,82,0.00,,,0.00,VWS V14.01,2013-09-24 05:30:00,
2013-09-24 01:40:00,51.6,46.3,29.89,South,177,0.0,0.0,82,0.00,,,0.00,VWS V14.01,2013-09-24 05:40:00,
2013-09-24 01:50:00,51.4,46.4,29.89,South,177,0.0,1.0,83,0.00,,,0.00,VWS V14.01,2013-09-24 05:50:00,
2013-09-24 02:00:00,51.1,46.1,29.89,South,177,0.0,1.0,83,0.00,,,0.00,VWS V14.01,2013-09-24 06:00:00,
2013-09-24 02:10:00,50.6,45.6,29.89,South,177,0.0,0.0,83,0.00,,,0.00,VWS V14.01,2013-09-24 06:10:00,
2013-09-24 02:20:00,50.3,45.7,29.89,South,177,0.0,0.0,84,0.00,,,0.00,VWS V14.01,2013-09-24 06:20:00,
2013-09-24 02:30:00,50.1,46.1,29.89,South,177,0.0,1.0,86,0.00,,,0.00,VWS V14.01,2013-09-24 06:30:00,
2013-09-24 02:40:00,50.1,46.1,29.89,South,177,0.0,1.0,86,0.00,,,0.00,VWS V14.01,2013-09-24 06:40:00,
2013-09-24 02:50:00,49.9,45.6,29.89,South,177,0.0,1.0,85,0.00,,,0.00,VWS V14.01,2013-09-24 06:50:00,
2013-09-24 03:00:00,49.6,45.6,29.89,South,177,0.0,0.0,86,0.00,,,0.00,VWS V14.01,2013-09-24 07:00:00,
2013-09-24 03:10:00,49.5,45.2,29.89,South,177,0.0,0.0,85,0.00,,,0.00,VWS V14.01,2013-09-24 07:10:00,
2013-09-24 03:20:00,49.3,45.0,29.89,South,177,0.0,0.0,85,0.00,,,0.00,VWS V14.01,2013-09-24 07:20:00,
2013-09-24 03:30:00,49.0,44.7,29.88,South,177,0.0,0.0,85,0.00,,,0.00,VWS V14.01,2013-09-24 07:30:00,
2013-09-24 03:40:00,48.5,44.2,29.88,South,177,0.0,0.0,85,0.00,,,0.00,VWS V14.01,2013-09-24 07:40:00,
2013-09-24 03:50:00,48.0,44.0,29.88,South,177,0.0,0.0,86,0.00,,,0.00,VWS V14.01,2013-09-24 07:50:00,
2013-09-24 04:00:00,47.6,43.9,29.87,South,177,0.0,0.0,87,0.00,,,0.00,VWS V14.01,2013-09-24 08:00:00,
2013-09-24 04:10:00,47.2,43.5,29.87,South,177,0.0,0.0,87,0.00,,,0.00,VWS V14.01,2013-09-24 08:10:00,
2013-09-24 04:20:00,46.8,43.1,29.87,South,177,0.0,0.0,87,0.00,,,0.00,VWS V14.01,2013-09-24 08:20:00,
2013-09-24 04:30:00,46.4,43.0,29.88,South,177,0.0,0.0,88,0.00,,,0.00,VWS V14.01,2013-09-24 08:30:00,
2013-09-24 04:40:00,46.2,43.1,29.88,South,177,0.0,0.0,89,0.00,,,0.00,VWS V14.01,2013-09-24 08:40:00,
2013-09-24 04:50:00,45.9,43.1,29.88,South,177,0.0,0.0,90,0.00,,,0.00,VWS V14.01,2013-09-24 08:50:00,
2013-09-24 05:00:00,45.8,43.0,29.88,South,177,0.0,0.0,90,0.00,,,0.00,VWS V14.01,2013-09-24 09:00:00,
2013-09-24 05:10:00,45.7,42.9,29.88,South,177,0.0,0.0,90,0.00,,,0.00,VWS V14.01,2013-09-24 09:10:00,
2013-09-24 05:20:00,45.6,42.8,29.89,South,177,0.0,2.0,90,0.00,,,0.00,VWS V14.01,2013-09-24 09:20:00,
2013-09-24 05:30:00,45.4,42.6,29.89,South,177,0.0,0.0,90,0.00,,,0.00,VWS V14.01,2013-09-24 09:30:00,
2013-09-24 05:40:00,45.2,42.5,29.89,South,177,0.0,1.0,90,0.00,,,0.00,VWS V14.01,2013-09-24 09:40:00,
2013-09-24 05:50:00,45.1,42.6,29.89,South,181,0.0,2.0,91,0.00,,,0.00,VWS V14.01,2013-09-24 09:50:00,
2013-09-24 06:00:00,45.0,42.5,29.89,South,181,1.0,1.0,91,0.00,,,0.00,VWS V14.01,2013-09-24 10:00:00,
2013-09-24 06:10:00,45.0,42.8,29.89,South,181,0.0,1.0,92,0.00,,,0.00,VWS V14.01,2013-09-24 10:10:00,
2013-09-24 06:20:00,45.3,43.4,29.88,South,182,0.0,1.0,93,0.00,,,0.00,VWS V14.01,2013-09-24 10:20:00,
2013-09-24 06:30:00,45.7,43.8,29.89,South,183,0.0,1.0,93,0.00,,,0.00,VWS V14.01,2013-09-24 10:30:00,
2013-09-24 06:40:00,46.0,43.8,29.89,South,175,0.0,1.0,92,0.00,,,0.00,VWS V14.01,2013-09-24 10:40:00,
2013-09-24 06:50:00,46.1,43.6,29.89,South,175,0.0,0.0,91,0.00,,,0.00,VWS V14.01,2013-09-24 10:50:00,
2013-09-24 07:00:00,46.2,43.4,29.89,South,175,0.0,0.0,90,0.00,,,0.00,VWS V14.01,2013-09-24 11:00:00,
2013-09-24 07:10:00,46.2,43.4,29.89,South,175,0.0,1.0,90,0.00,,,0.00,VWS V14.01,2013-09-24 11:10:00,
2013-09-24 07:20:00,46.3,43.2,29.89,South,175,0.0,1.0,89,0.00,,,0.00,VWS V14.01,2013-09-24 11:20:00,
2013-09-24 07:30:00,46.4,43.6,29.89,South,175,1.0,1.0,90,0.00,,,0.00,VWS V14.01,2013-09-24 11:30:00,
2013-09-24 07:40:00,46.6,43.8,29.89,South,175,0.0,1.0,90,0.00,,,0.00,VWS V14.01,2013-09-24 11:40:00,
2013-09-24 07:50:00,46.8,43.7,29.89,South,175,0.0,1.0,89,0.00,,,0.00,VWS V14.01,2013-09-24 11:50:00,
2013-09-24 08:00:00,47.1,44.0,29.89,SSW,206,0.0,2.0,89,0.00,,,0.00,VWS V14.01,2013-09-24 12:00:00,
2013-09-24 08:10:00,47.6,44.2,29.89,SSW,208,0.0,2.0,88,0.00,,,0.00,VWS V14.01,2013-09-24 12:10:00,
2013-09-24 08:20:00,48.4,44.7,29.88,South,190,3.0,4.0,87,0.00,,,0.00,VWS V14.01,2013-09-24 12:20:00,
2013-09-24 08:30:00,49.2,44.6,29.87,WSW,255,0.0,5.0,84,0.00,,,0.00,VWS V14.01,2013-09-24 12:30:00,
2013-09-24 08:40:00,49.8,44.8,29.87,SSW,193,0.0,6.0,83,0.00,,,0.00,VWS V14.01,2013-09-24 12:40:00,
2013-09-24 08:50:00,50.4,44.8,29.87,SSW,194,1.0,4.0,81,0.00,,,0.00,VWS V14.01,2013-09-24 12:50:00,
2013-09-24 09:00:00,51.1,44.8,29.87,SW,229,0.0,10.0,79,0.00,,,0.00,VWS V14.01,2013-09-24 13:00:00,
2013-09-24 09:10:00,51.7,45.7,29.87,South,188,0.0,3.0,80,0.00,,,0.00,VWS V14.01,2013-09-24 13:10:00,
2013-09-24 09:20:00,52.3,45.3,29.86,ENE,62,0.0,5.0,77,0.00,,,0.00,VWS V14.01,2013-09-24 13:20:00,
2013-09-24 09:30:00,52.8,45.5,29.86,SSW,193,2.0,5.0,76,0.00,,,0.00,VWS V14.01,2013-09-24 13:30:00,
2013-09-24 09:40:00,53.5,45.4,29.86,SSW,208,2.0,7.0,74,0.00,,,0.00,VWS V14.01,2013-09-24 13:40:00,
2013-09-24 09:50:00,54.1,44.9,29.85,NE,45,1.0,5.0,71,0.00,,,0.00,VWS V14.01,2013-09-24 13:50:00,
2013-09-24 10:00:00,54.6,44.7,29.84,South,180,1.0,6.0,69,0.00,,,0.00,VWS V14.01,2013-09-24 14:00:00,
2013-09-24 10:10:00,55.2,45.2,29.84,SSW,207,1.0,10.0,69,0.00,,,0.00,VWS V14.01,2013-09-24 14:10:00,
2013-09-24 10:20:00,55.8,46.9,29.84,ESE,121,2.0,7.0,72,0.00,,,0.00,VWS V14.01,2013-09-24 14:20:00,
2013-09-24 10:30:00,56.3,45.9,29.84,SSW,200,2.0,10.0,68,0.00,,,0.00,VWS V14.01,2013-09-24 14:30:00,
2013-09-24 10:40:00,56.7,45.5,29.84,East,87,0.0,9.0,66,0.00,,,0.00,VWS V14.01,2013-09-24 14:40:00,
2013-09-24 10:50:00,57.1,45.5,29.83,SW,234,4.0,9.0,65,0.00,,,0.00,VWS V14.01,2013-09-24 14:50:00,
2013-09-24 11:00:00,57.5,46.6,29.83,SW,229,5.0,10.0,67,0.00,,,0.00,VWS V14.01,2013-09-24 15:00:00,
2013-09-24 11:10:00,57.6,46.7,29.83,South,182,1.0,9.0,67,0.00,,,0.00,VWS V14.01,2013-09-24 15:10:00,
2013-09-24 11:20:00,58.1,48.0,29.82,SSW,212,1.0,9.0,69,0.00,,,0.00,VWS V14.01,2013-09-24 15:20:00,
2013-09-24 11:30:00,58.4,46.7,29.82,SSW,192,5.0,12.0,65,0.00,,,0.00,VWS V14.01,2013-09-24 15:30:00,
2013-09-24 11:40:00,58.8,45.8,29.82,SSW,202,2.0,9.0,62,0.00,,,0.00,VWS V14.01,2013-09-24 15:40:00,
2013-09-24 11:50:00,59.1,47.4,29.82,NE,50,1.0,6.0,65,0.00,,,0.00,VWS V14.01,2013-09-24 15:50:00,
2013-09-24 12:00:00,59.6,46.6,29.81,ENE,61,1.0,9.0,62,0.00,,,0.00,VWS V14.01,2013-09-24 16:00:00,
2013-09-24 12:10:00,59.9,45.5,29.81,ENE,74,1.0,8.0,59,0.00,,,0.00,VWS V14.01,2013-09-24 16:10:00,
2013-09-24 12:20:00,60.3,45.0,29.80,SSW,207,4.0,9.0,57,0.00,,,0.00,VWS V14.01,2013-09-24 16:20:00,
2013-09-24 12:30:00,60.6,45.3,29.80,SW,228,1.0,10.0,57,0.00,,,0.00,VWS V14.01,2013-09-24 16:30:00,
2013-09-24 12:40:00,60.8,46.0,29.80,NNW,331,0.0,9.0,58,0.00,,,0.00,VWS V14.01,2013-09-24 16:40:00,
2013-09-24 12:50:00,61.1,46.2,29.80,SW,236,2.0,9.0,58,0.00,,,0.00,VWS V14.01,2013-09-24 16:50:00,
2013-09-24 13:00:00,61.2,45.9,29.78,SSW,209,1.0,10.0,57,0.00,,,0.00,VWS V14.01,2013-09-24 17:00:00,
2013-09-24 13:10:00,61.2,45.4,29.78,SSW,209,3.0,10.0,56,0.00,,,0.00,VWS V14.01,2013-09-24 17:10:00,
2013-09-24 13:20:00,61.5,47.9,29.78,SW,230,2.0,7.0,61,0.00,,,0.00,VWS V14.01,2013-09-24 17:20:00,
2013-09-24 13:30:00,61.7,46.3,29.77,WSW,241,1.0,9.0,57,0.00,,,0.00,VWS V14.01,2013-09-24 17:30:00,
2013-09-24 13:40:00,61.6,46.7,29.77,SW,223,4.0,11.0,58,0.00,,,0.00,VWS V14.01,2013-09-24 17:40:00,
2013-09-24 13:50:00,62.0,46.6,29.76,North,355,2.0,9.0,57,0.00,,,0.00,VWS V14.01,2013-09-24 17:50:00,
2013-09-24 14:00:00,62.5,47.1,29.76,WSW,243,2.0,10.0,57,0.00,,,0.00,VWS V14.01,2013-09-24 18:00:00,
2013-09-24 14:10:00,62.8,46.9,29.76,SSW,202,1.0,7.0,56,0.00,,,0.00,VWS V14.01,2013-09-24 18:10:00,
2013-09-24 14:20:00,63.4,47.5,29.76,ESE,107,1.0,7.0,56,0.00,,,0.00,VWS V14.01,2013-09-24 18:20:00,
2013-09-24 14:30:00,63.8,47.8,29.75,SW,218,3.0,9.0,56,0.00,,,0.00,VWS V14.01,2013-09-24 18:30:00,
2013-09-24 14:40:00,64.0,48.0,29.75,SSW,211,2.0,9.0,56,0.00,,,0.00,VWS V14.01,2013-09-24 18:40:00,
2013-09-24 14:50:00,64.5,48.0,29.75,South,178,2.0,7.0,55,0.00,,,0.00,VWS V14.01,2013-09-24 18:50:00,
2013-09-24 15:00:00,64.8,47.3,29.74,WSW,258,1.0,6.0,53,0.00,,,0.00,VWS V14.01,2013-09-24 19:00:00,
2013-09-24 15:10:00,65.3,48.2,29.74,South,186,2.0,7.0,54,0.00,,,0.00,VWS V14.01,2013-09-24 19:10:00,
2013-09-24 15:20:00,65.6,50.0,29.74,SW,215,1.0,6.0,57,0.00,,,0.00,VWS V14.01,2013-09-24 19:20:00,
2013-09-24 15:30:00,66.0,48.4,29.73,SSW,211,3.0,9.0,53,0.00,,,0.00,VWS V14.01,2013-09-24 19:30:00,
2013-09-24 15:40:00,66.2,48.6,29.73,SW,217,4.0,8.0,53,0.00,,,0.00,VWS V14.01,2013-09-24 19:40:00,
2013-09-24 15:50:00,66.5,48.3,29.73,SSW,207,3.0,7.0,52,0.00,,,0.00,VWS V14.01,2013-09-24 19:50:00,
2013-09-24 16:00:00,66.8,49.1,29.73,South,180,2.0,5.0,53,0.00,,,0.00,VWS V14.01,2013-09-24 20:00:00,
2013-09-24 16:10:00,67.1,49.4,29.73,South,173,0.0,5.0,53,0.00,,,0.00,VWS V14.01,2013-09-24 20:10:00,
2013-09-24 16:20:00,67.3,50.1,29.73,SSW,203,2.0,9.0,54,0.00,,,0.00,VWS V14.01,2013-09-24 20:20:00,
2013-09-24 16:30:00,67.4,49.7,29.73,SW,221,2.0,7.0,53,0.00,,,0.00,VWS V14.01,2013-09-24 20:30:00,
2013-09-24 16:40:00,67.2,49.0,29.73,SW,221,1.0,6.0,52,0.00,,,0.00,VWS V14.01,2013-09-24 20:40:00,
2013-09-24 16:50:00,67.1,50.4,29.72,SSW,213,3.0,5.0,55,0.00,,,0.00,VWS V14.01,2013-09-24 20:50:00,
2013-09-24 17:00:00,66.6,50.4,29.72,SSE,168,0.0,5.0,56,0.00,,,0.00,VWS V14.01,2013-09-24 21:00:00,
2013-09-24 17:10:00,66.4,50.7,29.72,SSW,199,1.0,11.0,57,0.00,,,0.00,VWS V14.01,2013-09-24 21:10:00,
2013-09-24 17:20:00,65.9,50.7,29.72,SSW,210,2.0,5.0,58,0.00,,,0.00,VWS V14.01,2013-09-24 21:20:00,
2013-09-24 17:30:00,65.2,53.6,29.72,SW,219,1.0,3.0,66,0.00,,,0.00,VWS V14.01,2013-09-24 21:30:00,
2013-09-24 17:40:00,64.3,53.9,29.72,SW,219,0.0,2.0,69,0.00,,,0.00,VWS V14.01,2013-09-24 21:40:00,
2013-09-24 17:50:00,63.7,55.3,29.72,SW,219,0.0,2.0,74,0.00,,,0.00,VWS V14.01,2013-09-24 21:50:00,
2013-09-24 18:00:00,63.1,53.9,29.72,SW,219,0.0,1.0,72,0.00,,,0.00,VWS V14.01,2013-09-24 22:00:00,
2013-09-24 18:10:00,62.3,54.3,29.72,SW,219,0.0,2.0,75,0.00,,,0.00,VWS V14.01,2013-09-24 22:10:00,
2013-09-24 18:20:00,61.6,54.7,29.72,SW,219,0.0,0.0,78,0.00,,,0.00,VWS V14.01,2013-09-24 22:20:00,
2013-09-24 18:30:00,60.9,54.3,29.72,SW,219,0.0,0.0,79,0.00,,,0.00,VWS V14.01,2013-09-24 22:30:00,
2013-09-24 18:40:00,60.2,53.3,29.72,SW,219,0.0,1.0,78,0.00,,,0.00,VWS V14.01,2013-09-24 22:40:00,
2013-09-24 18:50:00,59.0,52.8,29.72,SW,219,0.0,2.0,80,0.00,,,0.00,VWS V14.01,2013-09-24 22:50:00,
2013-09-24 19:00:00,58.0,52.5,29.72,SW,219,0.0,1.0,82,0.00,,,0.00,VWS V14.01,2013-09-24 23:00:00,
2013-09-24 19:10:00,57.3,51.9,29.72,SW,219,1.0,1.0,82,0.00,,,0.00,VWS V14.01,2013-09-24 23:10:00,
2013-09-24 19:20:00,56.8,51.7,29.72,SW,219,0.0,2.0,83,0.00,,,0.00,VWS V14.01,2013-09-24 23:20:00,
2013-09-24 19:30:00,56.5,52.0,29.73,SW,219,0.0,1.0,85,0.00,,,0.00,VWS V14.01,2013-09-24 23:30:00,
2013-09-24 19:40:00,56.5,51.4,29.73,SW,219,0.0,0.0,83,0.00,,,0.00,VWS V14.01,2013-09-24 23:40:00,
2013-09-24 19:50:00,56.3,50.9,29.73,SW,219,0.0,0.0,82,0.00,,,0.00,VWS V14.01,2013-09-24 23:50:00,
2013-09-24 20:00:00,55.9,50.8,29.73,SW,219,0.0,0.0,83,0.00,,,0.00,VWS V14.01,2013-09-25 00:00:00,
2013-09-24 20:10:00,55.1,50.0,29.73,SW,219,0.0,1.0,83,0.00,,,0.00,VWS V14.01,2013-09-25 00:10:00,
2013-09-24 20:20:00,54.6,49.9,29.74,SW,219,0.0,1.0,84,0.00,,,0.00,VWS V14.01,2013-09-25 00:20:00,
2013-09-24 20:30:00,54.1,49.4,29.75,SW,219,0.0,1.0,84,0.00,,,0.00,VWS V14.01,2013-09-25 00:30:00,
2013-09-24 20:40:00,53.8,49.1,29.75,SW,219,0.0,1.0,84,0.00,,,0.00,VWS V14.01,2013-09-25 00:40:00,
2013-09-24 20:50:00,53.5,49.1,29.75,SW,219,0.0,0.0,85,0.00,,,0.00,VWS V14.01,2013-09-25 00:50:00,
2013-09-24 21:00:00,53.2,48.8,29.75,SW,219,0.0,0.0,85,0.00,,,0.00,VWS V14.01,2013-09-25 01:00:00,
2013-09-24 21:10:00,53.1,49.0,29.75,SW,219,0.0,0.0,86,0.00,,,0.00,VWS V14.01,2013-09-25 01:10:00,
2013-09-24 21:20:00,53.0,48.6,29.76,SW,219,0.0,0.0,85,0.00,,,0.00,VWS V14.01,2013-09-25 01:20:00,
2013-09-24 21:30:00,53.0,48.6,29.76,SW,219,0.0,0.0,85,0.00,,,0.00,VWS V14.01,2013-09-25 01:30:00,
2013-09-24 21:40:00,53.0,48.6,29.76,SW,219,0.0,0.0,85,0.00,,,0.00,VWS V14.01,2013-09-25 01:40:00,
2013-09-24 21:50:00,52.8,48.4,29.76,SW,219,0.0,1.0,85,0.00,,,0.00,VWS V14.01,2013-09-25 01:50:00,
2013-09-24 22:00:00,52.6,48.5,29.77,SW,219,0.0,0.0,86,0.00,,,0.00,VWS V14.01,2013-09-25 02:00:00,
2013-09-24 22:10:00,52.2,48.2,29.77,SW,219,0.0,1.0,86,0.00,,,0.00,VWS V14.01,2013-09-25 02:10:00,
2013-09-24 22:20:00,51.7,47.7,29.78,SW,219,0.0,1.0,86,0.00,,,0.00,VWS V14.01,2013-09-25 02:20:00,
2013-09-24 22:30:00,51.3,47.0,29.78,SW,219,0.0,1.0,85,0.00,,,0.00,VWS V14.01,2013-09-25 02:30:00,
2013-09-24 22:40:00,51.0,47.0,29.78,SW,219,0.0,1.0,86,0.00,,,0.00,VWS V14.01,2013-09-25 02:40:00,
2013-09-24 22:50:00,51.0,47.6,29.78,SW,219,0.0,0.0,88,0.00,,,0.00,VWS V14.01,2013-09-25 02:50:00,
2013-09-24 23:00:00,51.1,47.4,29.78,SW,219,0.0,0.0,87,0.00,,,0.00,VWS V14.01,2013-09-25 03:00:00,
2013-09-24 23:10:00,51.1,47.4,29.78,SW,219,0.0,0.0,87,0.00,,,0.00,VWS V14.01,2013-09-25 03:10:00,
2013-09-24 23:20:00,51.1,47.4,29.78,SW,219,0.0,0.0,87,0.00,,,0.00,VWS V14.01,2013-09-25 03:20:00,
2013-09-24 23:30:00,50.9,47.2,29.78,SW,219,0.0,1.0,87,0.00,,,0.00,VWS V14.01,2013-09-25 03:30:00,
2013-09-24 23:40:00,50.8,46.8,29.78,SW,219,0.0,1.0,86,0.00,,,0.00,VWS V14.01,2013-09-25 03:40:00,
2013-09-24 23:50:00,50.6,46.9,29.78,SW,219,0.0,1.0,87,0.00,,,0.00,VWS V14.01,2013-09-25 03:50:00,